Location: Berlaimont
(50.2016°N, 3.8134°E)
Time: 16:19:25
(UTC+00:00)

Daily predictions for brighter satellites

Satellite Brightness Start Highest point End
(mag) Time Altitude Azimuth Time Altitude Azimuth Time Altitude Azimuth
BREEZE-M DEB (TANK) 3.7 16:49:29 10° W 16:51:50 40° SSW 16:58:30 10° SE
CBERS-1 4.2 16:47:34 10° SSE 16:52:39 81° WSW 16:57:46 10° NNW
Cosmos 1515 Rocket 3.6 16:49:04 10° S 16:53:30 85° E 16:57:57 10° N
UNK 4.0 16:51:42 10° NNE 16:56:06 49° E 17:00:30 10° S
NOSS 3-1 (A) 4.3 16:51:18 10° NW 16:57:29 42° NNE 17:05:11 10° E
Cosmos 2322 Rocket 4.2 16:58:20 10° N 16:59:31 11° NNE 17:00:42 10° NNE
Meteor 2-15 4.5 16:53:37 10° N 16:59:47 84° E 17:05:52 10° S
USA 276 1.3 16:57:58 10° W 17:00:09 84° S 17:02:37 10° E
SL-16 R/B 4.2 16:57:05 10° W 17:01:05 19° NW 17:05:04 10° N
RESURS DK-1 2.5 16:57:37 10° SW 17:01:36 70° WNW 17:05:35 10° NNE
Cosmos 1302 Rocket 4.1 16:56:32 10° S 17:01:45 67° ESE 17:07:01 10° NNE
SAR-Lupe-4 4.3 17:01:16 10° SE 17:04:28 32° ENE 17:07:43 10° N
NOSS 3-1 (C) 4.0 17:00:34 10° NW 17:07:18 69° NE 17:15:48 10° SE
Cosmos 1934 Rocket 4.3 17:02:54 10° N 17:08:45 43° ENE 17:14:40 10° SE
SJ-12 3.8 17:06:42 10° SSE 17:10:27 59° ENE 17:14:14 10° N
Cosmos 1733 Rocket 3.6 17:11:01 10° N 17:15:04 36° ENE 17:19:03 10° SE
Cosmos 2333 Rocket 4.0 17:13:16 10° N 17:16:19 14° NNE 17:19:13 10° ENE
Cosmos 2181 Rocket 4.2 17:10:52 10° SSW 17:17:03 81° W 17:23:24 10° N
USA 59 Rocket 0.2 17:14:07 10° NW 17:17:29 64° SW 17:21:54 10° SSE
MOS 1 Rocket 3.5 17:12:53 10° SSE 17:17:59 85° WSW 17:22:49 10° NNW
Cosmos 1980 Rocket 2.7 17:14:27 10° NNW 17:19:42 39° NE 17:24:55 10° ESE
Cosmos 1992 Rocket 4.1 17:15:42 10° S 17:20:45 55° ESE 17:25:50 10° NNE
Meteor 1-28 Rocket 3.7 17:18:57 10° N 17:22:10 52° WNW 17:25:22 10° SSW
Cosmos 1933 Rocket 4.2 17:18:20 10° NNW 17:22:39 59° W 17:26:54 10° S
IRS-1C 4.1 17:17:44 10° SSE 17:23:04 87° ENE 17:28:26 10° NNW
CZ-4 R/B 4.3 17:28:46 10° SSE 17:32:40 60° ENE 17:36:36 10° N
ATLAS 5 CENTAUR R/B 3.4 17:32:05 10° NW 17:33:34 12° NNW 17:35:10 10° NNE
Okean 3 3.4 17:29:55 10° SSW 17:33:58 83° W 17:38:00 10° N
Cosmos 2219 Rocket 4.2 17:33:35 10° N 17:34:44 11° NNE 17:35:53 10° NNE
Cosmos 1486 Rocket 4.2 17:32:03 10° NNW 17:37:14 50° ENE 17:42:21 10° SE
ARIANE 6 FM1 Upper Stage 4.2 17:35:20 10° SSE 17:38:09 18° ESE 17:39:22 16° E
BREEZE-M DEB (TANK) 3.1 17:37:22 10° WSW 17:40:22 65° SSE 17:47:10 16° E
NOSS 2-1 (C) 4.2 17:37:10 10° NW 17:40:28 49° SW 17:44:45 10° SSE
Cosmos 1697 Rocket 2.8 17:34:51 10° NNW 17:40:33 85° WSW 17:46:14 10° SSE
NOSS 2-1 (E) 3.9 17:37:21 10° NW 17:40:42 56° SW 17:45:00 10° SSE
SWAS 4.2 17:36:51 10° NNW 17:40:54 79° ENE 17:44:55 10° SE
SJ-6F 4.4 17:37:44 10° SSE 17:41:47 85° W 17:45:49 10° NNW
ISS -3.8 17:41:12 10° WNW 17:44:32 70° N 17:46:23 24° E
Cosmos 1833 Rocket 2.6 17:40:33 10° SSW 17:46:11 80° ESE 17:51:51 10° NNE
Okean 1-7 3.3 17:42:26 10° SSE 17:46:16 40° E 17:50:09 10° NNE
NOAA 6 4.3 17:41:47 10° SE 17:46:36 43° ENE 17:51:27 10° N
SPOT 1/Viking Rocket 3.5 17:42:58 10° SSE 17:48:07 89° WSW 17:53:17 10° NNW
Cosmos 2360 Rocket 3.9 17:45:56 10° N 17:49:02 15° NNE 17:50:14 14° NE
SL-16 R/B 3.7 17:44:07 10° N 17:49:51 41° WNW 17:55:33 10° SW
Nadezhda 3 Rocket 4.1 17:43:50 10° S 17:49:59 84° W 17:56:14 10° N
BlueWalker 3 2.8 17:47:42 10° SSW 17:50:51 30° SE 17:52:09 23° ESE
USA 267 3.6 17:46:26 17° ENE 17:51:17 50° N 17:57:33 10° WNW
Resurs 01 Rocket 2.2 17:49:36 10° SE 17:53:31 33° ENE 17:57:27 10° N
Cosmos 2228 Rocket 3.4 17:49:51 10° SSE 17:54:04 43° E 17:58:15 10° NNE
Cosmos 2082 Rocket 3.2 17:51:05 10° SSE 17:55:26 24° ESE 17:56:44 22° E
SL-16 R/B 3.3 17:55:27 10° NNW 18:00:00 24° NE 18:01:19 22° ENE
Cosmos 1535 Rocket 4.5 17:54:18 10° N 18:00:40 64° ENE 18:06:55 10° SSE
COSMO-SKYMED 1 2.6 17:58:32 12° NNE 18:02:12 49° E 18:06:11 10° S
Cosmos 1777 Rocket 3.9 17:57:05 10° NNW 18:02:16 63° ENE 18:07:25 10° SE
Spot 4 Rocket 3.9 17:58:30 10° SSE 18:03:36 75° ENE 18:08:43 10° NNW
Resurs 1-3 3.5 18:01:40 10° SSE 18:05:58 90° NNW 18:10:18 10° NNW
USA 305 2.6 18:02:31 10° WSW 18:06:19 78° NNW 18:07:58 34° ENE
Cosmos 990 Rocket 4.4 18:04:12 10° NNW 18:09:09 41° ENE 18:11:49 24° ESE
Cosmos 1862 Rocket 3.5 18:12:51 10° S 18:17:15 84° W 18:21:40 10° N
YAOGAN 1 2.7 18:13:08 10° S 18:17:22 72° WSW 18:21:39 10° NNW
SL-19 R/B 4.5 18:11:54 10° SSE 18:18:12 81° ENE 18:24:30 10° NNW
ARIANE 5 R/B 4.4 18:15:09 10° SSW 18:19:48 33° W 18:24:28 10° NNW
Meteor 1-24 Rocket 3.9 18:14:16 10° S 18:19:51 54° E 18:25:39 10° NNE
SJ-7 4.5 18:22:51 10° S 18:26:36 68° WSW 18:30:22 10° NNW
Cosmos 1908 Rocket 3.5 18:22:42 10° N 18:27:02 59° ENE 18:31:23 10° SSE
Cosmos 909 Rocket 4.2 18:20:54 10° SW 18:28:20 90° SSE 18:32:44 22° NE
ATLAS 3B R/B 3.7 18:21:21 10° NW 18:28:34 37° NNE 18:31:25 28° ENE
PSLV R/B 3.6 18:26:55 10° S 18:31:04 73° WSW 18:35:14 10° NNW
Cosmos 1707 Rocket 3.9 18:27:35 10° SSW 18:31:51 63° WNW 18:36:07 10° N
COSMOS 2455 3.8 18:26:08 10° NW 18:31:56 49° WSW 18:37:41 10° S
DMSP B5D1-3 4.5 18:29:09 21° NNE 18:32:28 57° ESE 18:37:26 10° S
CZ-2D R/B 4.2 18:29:01 10° S 18:32:42 48° W 18:36:26 10° NNW
USA 276 3.5 18:30:48 10° W 18:32:27 28° SW 18:32:27 28° SW
Cosmos 1605 Rocket 4.0 18:27:13 10° N 18:33:39 85° W 18:39:58 10° S
Cosmos 1809 Rocket 4.4 18:33:42 10° S 18:39:43 58° E 18:45:48 10° NNE
Cosmos 1727 Rocket 4.1 18:37:15 10° SSE 18:43:15 49° E 18:49:14 10° NNE
Meteor 2-5 Rocket 3.6 18:39:02 10° S 18:44:38 73° E 18:50:24 10° NNE
Cosmos 2322 Rocket 3.3 18:40:49 10° NNW 18:44:45 27° NNE 18:44:45 27° NNE
Cosmos 2278 4.4 18:41:00 10° NNW 18:45:42 36° NE 18:45:42 36° NE
NOSS 3-1 (A) 4.1 18:41:53 10° NW 18:48:55 76° SW 18:57:43 10° SSE
CARTOSAT-1 4.1 18:45:02 10° S 18:49:11 57° W 18:53:21 10° NNW
Aureole 1 Rocket 3.9 18:42:48 10° NNW 18:49:14 50° ENE 18:49:36 50° ENE
SL-24 R/B 4.3 18:48:57 71° SSE 18:49:22 85° ENE 18:53:31 10° NNW
Cosmos 1503 Rocket 4.3 18:44:36 10° NNW 18:49:50 68° WSW 18:55:04 10° SSE
Cosmos 1328 4.4 18:51:13 10° SSW 18:54:39 49° WNW 18:55:05 46° NW
Cosmos 540 Rocket 3.8 18:53:04 10° S 18:56:55 47° SSE 18:56:55 47° SSE
USA 215 4.1 18:59:01 31° SE 18:59:01 31° SE 19:04:03 10° SSW
ATLAS 2AS CENTAUR R/B 4.0 18:53:47 10° S 18:57:06 23° SSE 18:57:06 23° SSE
Cosmos 2333 Rocket 2.8 18:56:44 10° NNW 19:01:15 40° NNE 19:01:15 40° NNE
Cosmos 1980 Rocket 3.2 18:58:28 10° NW 19:03:46 44° WSW 19:09:03 10° S
CSL-04 Rocket 3.9 19:05:32 51° NNE 19:05:32 51° NNE 19:09:46 10° N
Cosmos 1763 Rocket 3.4 18:59:52 10° SSW 19:04:21 66° SSE 19:04:21 66° SSE
Cosmos 2369 4.0 19:09:00 10° NW 19:14:36 64° WSW 19:17:01 34° S
ARIANE 6 FM1 Upper Stage 3.8 19:12:43 10° SW 19:15:25 39° WSW 19:15:25 39° WSW
USA 229 DEB 4.1 19:13:25 10° NW 19:20:29 53° NE 19:20:58 52° NE
USA 229 4.1 19:13:30 10° NW 19:20:34 53° NE 19:21:02 52° NE
Cosmos 2219 Rocket 3.8 19:15:55 10° NNW 19:18:24 21° N 19:18:24 21° N
ISS -1.1 19:18:01 10° WNW 19:19:19 21° W 19:19:19 21° W
BlueWalker 3 4.2 19:24:35 10° WSW 19:25:54 21° WSW 19:25:54 21° WSW
Resurs 01 Rocket 3.4 19:26:00 10° SSW 19:29:53 31° W 19:33:48 10° NNW
USA 267 3.1 19:33:46 75° NE 19:33:56 76° NNE 19:40:29 10° WNW
Cosmos 2360 Rocket 3.5 19:29:02 10° NNW 19:31:59 29° N 19:31:59 29° N
Cosmos 1459 Rocket 4.0 19:31:54 10° N 19:37:22 73° NNW 19:37:22 73° NNW
Cosmos 2100 Rocket 4.0 19:31:49 10° NNW 19:38:11 77° W 19:39:14 62° SSW
Cosmos 2082 Rocket 2.5 19:33:26 10° SW 19:38:38 65° W 19:38:38 65° W
SL-16 R/B 2.9 19:39:07 10° NNW 19:43:11 48° NNW 19:43:11 48° NNW
ATLAS 3B R/B 3.4 20:12:34 10° NW 20:18:40 56° NNW 20:18:40 56° NNW
Cosmos 2322 Rocket 4.2 20:24:34 10° NNW 20:26:34 23° NW 20:26:34 23° NW
Cosmos 2333 Rocket 4.4 20:41:11 10° NW 20:43:18 22° NW 20:43:18 22° NW
